NAYIF-1 (EO-88) (42017 NORAD) Tracking and Keplerian Element Data

This shows tracking and keplerian element data for the satellite.

Feedback or suggestion? Click here.




ElementValue
Catalog42017
NameNAYIF-1 (EO-88)
Epoch Orbit9681
Epoch Day317.4713664
Epoch Year2018
RAAN21.5422
Inclination97.432
Eccentricity0.0005648
Argument of Perigee200.803
Mean Anonmoly159.2978
Mean Motion15.24889347
Decay Rate1.618E-05
L11 42017U 17008BX 18317.47136640 .00001618 00000-0 67933-4 0 9999
L22 42017 97.4320 21.5422 0005648 200.8030 159.2978 15.24889347 96819

Live tracking and technical data element details for NAYIF-1 (EO-88) (NORAD 42017). NAYIF-1 (EO-88) can be tracked NOW for your location showing map with azimuth and elevation plus other details from your city location.

Track the satellite on the map from your city or location and see movement details for azimuth, elevation, latitude, longitude, range, height, and movement on the map or in text.







IsCatalogInMostPopularTable: catalog: 42017, numindb: 160
Update: records affected: 1



GetName: 42017 NAYIF-1 (EO-88)

Hit Count: updated at: Wed, 14 Nov 2018 15:36:38 GMT